SCP
0 0 0 0 0 0 0 0 0 0 0 0 0 0 0 0 0 0 0 0 0 0 0 0 0 0 0 0 0 0 0 0 0 0 0 0 0 0
0 0 0 0 0 0 0 0 0 0 0 0 0 0 0 0 0 0 0 0 0 0 0 0 0 0 0 0 0 0 0 0 0 0 0 0 0 0
0 0 0 0 0 0 0 0 0 0 0 0 0 0 0 0 0 0 0 0 0 0 0 0 0 0 0 0 0 0 0 0 0 0 0 0 0 0
0 0 0 0 0 0 0 0 0 0 0 0 0 0 0 0 0 0 0 0 0 0 0 0 0 0 0 0 0 0 0 0 0 0 0 0 0 0
0 0 0 0 0 0 0 0 0 0 0 0 0 0 0 0 0 0 0 0 0 0 0 0 0 0 0 0 0 0 0 0 0 0 0 0 0 0
0 0 0 0 0 0 0 0 0 0 0 0 0 0 0 0 0 0 0 0 0 0 0 0 0 0 0 0 0 0 0 0 0 0 0 0 0 0
0 0 0 0 0 0 0 0 0 0 0 0 0 0 0 0 0 0 0 0 0 0 0 0 0 0 0 0 0 0 0 0 0 0 0 0 0 0
0 0 0 0 0 0 0 0 0 0 0 0 0 0 0 0 0 0 0 0 0 0 0 0 0 0 0 0 0 0 0 0 0 0 0 0 0 0
0 0 0 0 0 0 0 0 0 0 0 0 0 0 0 0 0 0 0 0 0 0 0 0 0 0 0 0 0 0 0 0 0 0 0 0 0 0
0 0 0 0 0 0 0 0 0 0 0 0 0 0 0 0 0 0 0 0 0 0 0 0 0 0 0 0 0 0 0 0 0 0 0 0 0 0
0 0 0 0 0 0 0 0 0 0 0 0 0 0 0 0 0 0 0 0 0 0 0 0 0 0 0 0 0 0 0 0 0 0 0 0 0 0
0 0 0 0 0 0 0 0 0 0 0 0 0 0 0 0 0 0 0 0 0 0 0 0 0 0 0 0 0 0 0 0 0 0 0 0 0 0
0 0 0 0 0 0 0 0 0 0 0 0 0 0 0 0 0 0 0 0 0 0 0 0 0 0 0 0 0 0 0 0 0 0 0 0 0 0
0 0 0 0 0 0 0 0 0 0 0 0 0 0 0 0 0 0 0 0 0 0 0 0 0 0 0 0 0 0 0 0 0 0 0 0 0 0
0 0 0 0 0 0 0 0 0 0 0 0 0 0 0 0 0 0 0 0 0 0 0 0 0 0 0 0 0 0 0 0 0 0 0 0 0 0
0 0 0 0 0 0 0 0 0 0 0 0 0 0 0 0 0 0 0 0 0 0 0 0 0 0 0 0 0 0 0 0 0 0 0 0 0 0
0 0 0 0 0 0 0 0 0 0 0 0 0 0 0 0 0 0 0 0 0 0 0 0 0 0 0 0 0 0 0 0 0 0 0 0 0 0
0 0 0 0 0 0 0 0 0 0 0 0 0 0 0 0 0 0 0 0 0 0 0 0 0 0 0 0 0 0 0 0 0 0 0 0 0 0
0 0 0 0 0 0 0 0 0 0 0 0 0 0 0 0 0 0 0 0 0 0 0 0 0 0 0 0 0 0 0 0 0 0 0 0 0 0
0 0 0 0 0 0 0 0 0 0 0 0 0 0 0 0 0 0 0 0 0 0 0 0 0 0 0 0 0 0 0 0 0 0 0 0 0 0
0 0 0 0 0 0 0 0 0 0 0 0 0 0 0 0 0 0 0 0 0 0 0 0 0 0 0 0 0 0 0 0 0 0 0 0 0 0
0 0 0 0 0 0 0 0 0 0 0 0 0 0 0 0 0 0 0 0 0 0 0 0 0 0 0 0 0 0 0 0 0 0 0 0 0 0
0 0 0 0 0 0 0 0 0 0 0 0 0 0 0 0 0 0 0 0 0 0 0 0 0 0 0 0 0 0 0 0 0 0 0 0 0 0
Wind_Speed
2 3 2 1 2 2 2 2 2 2 1 2 1 1 1 1 3 2 3 6 4 4 4 4 4 4 4 4 4 4 3 3 3 3 3 4 4 4
2 3 3 2 2 2 2 2 2 2 1 1 1 1 2 1 2 1 3 6 5 4 3 3 3 3 3 4 4 3 3 3 2 2 2 3 3 3
3 3 3 3 2 2 2 2 2 2 2 1 1 1 2 2 2 1 2 3 4 5 3 3 2 2 2 2 3 3 3 2 2 2 1 2 2 2
4 4 4 3 4 3 3 3 3 3 3 2 2 1 2 2 2 2 1 1 2 5 4 2 2 1 2 2 2 2 2 2 2 1 1 1 1 1
4 4 4 4 5 4 4 3 3 3 3 3 2 2 1 2 2 2 2 2 2 4 4 3 2 2 2 3 2 2 1 1 1 0 0 0 0 0
4 4 4 4 5 4 4 4 3 3 3 3 3 3 2 2 2 2 2 2 2 2 2 2 3 4 3 4 3 2 2 1 1 1 1 1 1 1
4 4 4 3 2 3 3 4 4 4 3 3 3 3 3 3 3 3 3 3 3 3 2 3 3 4 4 5 6 4 4 3 3 2 2 2 2 2
4 4 4 4 3 3 3 4 4 5 5 4 4 5 5 4 3 4 3 3 3 3 3 3 3 3 3 3 4 6 6 5 4 4 4 3 3 4
4 4 3 3 4 4 5 5 6 6 5 5 6 6 5 5 5 6 5 5 3 2 3 4 4 4 3 3 5 6 6 6 6 5 5 5 5 5
3 4 4 4 4 4 4 5 5 6 6 6 6 5 5 4 6 6 6 5 3 2 4 4 3 4 3 3 6 8 7 7 6 6 6 6 6 6
3 3 4 4 2 4 5 6 5 5 4 4 4 3 2 2 3 4 4 5 4 4 4 3 3 3 3 4 4 8 8 7 7 7 7 7 6 7
3 3 3 4 3 4 6 6 6 5 5 5 5 5 5 5 6 6 5 5 4 3 4 4 3 2 3 3 3 4 6 7 8 8 8 7 7 6
3 3 2 2 3 4 6 5 5 5 5 5 4 4 4 4 5 5 5 5 5 4 3 4 4 4 4 3 3 3 4 4 5 6 8 8 8 7
3 3 2 2 3 4 4 3 3 4 4 4 4 4 4 4 4 5 6 6 5 5 4 5 4 4 4 4 3 3 3 4 4 4 4 6 9 10
2 2 2 2 3 4 4 4 4 4 4 4 4 4 4 4 4 4 5 5 5 4 4 5 5 4 5 5 5 4 4 4 4 5 5 5 5 5
3 2 2 2 3 2 2 3 4 3 4 4 4 4 4 4 4 4 4 4 4 4 5 5 6 6 5 6 5 5 5 4 4 5 5 5 5 5
3 2 2 1 2 2 2 2 3 3 4 4 4 4 4 4 4 4 4 4 5 5 4 4 4 5 6 5 5 6 6 5 5 5 5 6 6 6
2 2 2 2 2 2 2 2 3 3 3 4 4 4 4 4 4 4 4 5 5 5 5 4 3 3 4 4 6 7 6 5 5 5 5 6 6 6
2 2 3 2 2 2 3 3 3 3 3 4 4 4 4 4 4 4 4 5 5 5 5 4 4 5 6 6 5 6 6 5 5 5 6 6 7 6
2 3 3 3 3 3 3 3 3 3 3 3 4 4 4 4 4 4 4 5 5 5 5 4 5 6 7 6 5 4 7 6 6 6 6 6 5 5
2 3 3 3 3 3 3 3 3 3 3 3 4 4 4 5 5 5 5 5 6 6 6 5 5 6 5 4 5 5 4 6 6 6 6 5 5 5
3 3 3 3 3 3 3 3 4 3 4 4 4 4 4 4 5 6 5 5 5 6 6 5 4 4 4 6 6 6 5 4 5 6 6 6 5 5
3 3 3 3 4 4 4 4 5 4 4 4 4 5 5 5 5 5 6 6 5 5 5 5 4 4 5 5 6 6 7 5 4 4 5 6 7 7
Wind_Direction
236 231 231 219 236 233 233 238 241 225 207 156 163 147 142 106 117 172 137 108 105 97 87 82 82 81 80 82 79 79 78 77 80 80 82 78 76 79
236 235 229 217 213 222 227 238 249 249 242 166 179 165 135 136 116 164 121 124 129 115 101 92 82 79 82 79 76 76 75 73 75 83 92 83 74 75
217 219 222 225 215 217 215 220 229 222 219 215 185 164 157 161 136 169 159 160 140 136 121 110 99 95 98 90 86 78 72 74 76 89 104 96 95 81
231 225 217 212 221 221 220 218 218 215 207 198 180 175 189 175 172 182 178 161 157 133 141 136 128 114 127 122 108 92 79 75 72 73 101 113 114 96
238 239 228 218 218 213 220 219 218 213 203 197 180 158 191 186 193 200 195 184 189 153 164 177 172 170 172 163 151 133 117 104 91 75 175 168 318 243
236 242 239 234 232 220 215 215 216 211 205 199 190 178 181 188 204 202 200 194 210 191 182 203 193 200 200 194 190 186 180 179 187 200 214 225 251 272
233 236 234 241 273 241 227 218 213 211 205 206 203 196 188 187 204 207 211 198 209 206 207 207 205 210 203 203 207 209 211 211 212 216 225 235 243 250
234 233 219 206 206 213 220 226 232 226 217 214 218 214 212 208 210 212 208 208 215 195 225 228 220 225 222 220 192 200 213 218 220 225 231 238 242 245
245 237 225 213 210 217 207 210 219 227 237 236 227 227 224 213 211 216 218 221 231 188 216 232 221 230 225 210 184 198 211 220 227 234 239 241 242 246
252 247 235 225 219 232 225 224 228 220 221 232 240 239 236 227 219 226 225 226 237 201 212 244 227 234 232 220 188 200 212 223 232 237 241 243 245 245
249 247 247 242 224 236 231 225 228 227 206 223 263 263 265 241 217 215 211 212 225 212 205 239 243 244 244 235 197 196 212 222 228 235 239 242 243 243
259 248 240 259 240 229 230 225 228 229 222 210 219 220 220 203 204 220 218 223 228 224 195 221 233 237 244 229 221 211 214 218 222 230 235 237 236 239
260 254 242 235 245 243 247 237 238 246 230 226 221 218 214 208 207 222 229 233 236 236 203 213 234 236 250 250 238 233 231 228 224 227 227 229 229 238
268 262 255 223 240 236 236 237 236 237 236 231 227 220 217 216 219 220 227 232 246 254 221 214 234 235 243 249 251 230 234 240 239 239 235 219 225 231
287 311 294 236 233 226 219 225 222 224 227 229 230 230 230 228 226 221 225 229 242 251 240 225 232 237 244 253 255 251 247 241 236 240 241 235 234 230
273 250 222 207 220 227 213 217 227 229 232 235 241 243 238 228 223 222 223 218 228 235 237 236 234 235 241 250 255 254 250 245 237 239 242 245 243 236
275 256 245 225 219 219 221 222 228 228 234 241 243 243 240 234 230 230 233 230 233 237 231 230 234 236 246 251 247 246 246 245 243 241 241 244 244 239
261 241 243 245 236 233 235 234 230 235 240 242 242 243 241 237 232 229 230 235 239 242 240 227 219 228 240 247 240 250 247 246 247 239 240 246 250 241
238 244 244 248 249 246 248 246 244 242 243 243 241 242 245 243 238 233 231 237 244 246 246 235 223 228 241 251 235 225 248 247 241 239 239 243 250 250
251 260 259 257 259 256 253 252 254 253 248 250 255 251 248 246 243 242 239 241 246 247 246 240 235 235 243 255 260 242 229 244 243 242 242 246 254 255
252 261 267 264 261 258 257 255 251 250 252 251 253 259 255 249 246 246 245 246 249 248 247 246 246 245 255 262 256 250 234 227 250 253 249 246 249 246
255 257 261 265 263 260 255 254 251 248 251 251 253 257 259 255 251 249 248 245 245 252 257 257 249 238 242 245 251 256 258 244 240 258 261 256 253 248
259 258 258 264 259 257 259 255 253 254 252 251 251 251 253 256 258 253 249 249 249 253 258 256 246 239 245 248 253 257 258 254 247 244 248 243 247 266